Location: Veytaux
(46.4185°N, 6.9320°E)
Time: 04:15:47
(UTC+00:00)

DEBRIS - Pass Details

Date: 27 September 2022
Orbit: 310 x 15046 km, 49.5° (Epoch: 28 November)

Event Time Altitude Azimuth Distance (km) Brightness Sun altitude
Rises 03:48:37 0° 178° (S) 11,534 9.3 -17.3°
Reaches altitude 10° 03:56:42 10° 173° (S) 12,015 9.5 -16.0°
Maximum altitude 05:39:53 60° 108° (ESE) 15,537 10.6 1.7°
Drops below altitude 10° 07:00:52 10° 58° (ENE) 10,995 10.0 15.3°
Sets 07:07:04 0° 57° (ENE) 10,789 9.9 16.3°
